Regional Weather Roundup
Issued by NWS

Home | Current Version | Previous Version | Graphics & Text | Print | Product List | Glossary On
Versions: 1 2 3 4 5 6 7 8 9 10 11 12 13 14 15 16 17 18 19 20 21 22 23 24 25 26 27 28 29 30 31 32 33 34 35 36 37 38 39 40 41 42 43 44 45 46 47 48 49 50
225
ASUS44 KLIX 170501
RWRLA
LOUISIANA WEATHER ROUNDUP
NATIONAL WEATHER SERVICE NEW ORLEANS LA
1200 AM CDT THU APR 17 2014

NOTE: "FAIR" INDICATES FEW OR NO CLOUDS BELOW 12,000 FEET WITH NO
      SIGNIFICANT WEATHER AND/OR OBSTRUCTIONS TO VISIBILITY.
      SKY/WX - SKY CONDITION AND SIGNIFICANT WEATHER.
      TMP - AIR TEMPERATURE.    DP   - DEWPOINT TEMPERATURE.
      RH  - RELATIVE HUMIDITY.  PRES - PRESSURE.
      HX  - HEAT INDEX.         WCI  - WIND CHILL INDEX.

*  THESE STATIONS ARE NOT NWS OR FAA STATIONS AND ARE NOT UNDER
   NWS QUALITY CONTROL.

LAZ040-048-061>063-065-066-069-170600-
SOUTHEAST LOUISIANA

CITY           SKY/WX    TMP DP  RH WIND       PRES   REMARKS
N.O. AUDUBON   NOT AVBL
N.O. INTL ARPT CLEAR     53  45  74 CALM      30.16F
N.O. LAKEFRONT CLEAR     55  48  77 SE7       30.17S
N.O. DOWNTOWN* FAIR      55  43  62 CALM      30.17S
SLIDELL        CLEAR     45  42  89 CALM      30.17R
BATON ROUGE    CLEAR     51  42  71 SE7       30.16R
BOOTHVILLE     CLOUDY    59  51  75 NE3       30.15F
BELLE CHASSE   PTCLDY    47  44  90 NE3       30.15F
BOGALUSA*        N/A     47  43  87 CALM      30.19R
GALLIANO*      NOT AVBL
NEW ROADS*     NOT AVBL
GONZALES*      FAIR      52  47  83 E3        30.16S
HAMMOND*       NOT AVBL
HOUMA*         NOT AVBL
PORT FOURCHON* CLOUDY    61  48  63 E10G20    30.15F

$$

LAZ041-044-053-054-170600-
SOUTHWEST LOUISIANA

CITY           SKY/WX    TMP DP  RH WIND       PRES   REMARKS
LAKE CHARLES   CLEAR     53  49  86 E5        30.10S
LAFAYETTE      PTCLDY    53  50  89 SE3       30.14S
PATTERSON      CLEAR     52  46  82 E3        30.18R
SALT POINT       N/A     57  49  74 E3        30.14R
NEW IBERIA     PTCLDY    53  48  83 SE9       30.15R
CHENAULT AIRPK NOT AVBL

$$

LAZ027-028-170600-
CENTRAL LOUISIANA

CITY           SKY/WX    TMP DP  RH WIND       PRES   REMARKS
FORT POLK      PTCLDY    47  44  90 CALM      30.10S
ALEXANDRIA INT CLEAR     49  46  90 SE3       30.11S
ALEXANDRIA     CLEAR     45  42  89 CALM      30.13S

$$

LAZ001-002-170600-
NORTHWEST LOUISIANA

CITY           SKY/WX    TMP DP  RH WIND       PRES   REMARKS
SHREVEPORT     CLEAR     48  40  73 E5        30.10R
BARKSDALE AFB  CLEAR     48  39  70 SE6       30.11R
DTN SHREVEPORT CLEAR     48  40  73 E5        30.11R

$$

LAZ014-016-170600-
NORTHEAST LOUISIANA

CITY           SKY/WX    TMP DP  RH WIND       PRES   REMARKS
MONROE         CLEAR     47  41  80 CALM      30.15R
TALLULAH       CLEAR     53  47  79 CALM      30.16R

$$




USA.gov is the U.S. government's official web portal to all federal, state and local government web resources and services.